User: anonymous   Login
Location: Unspecified
(0.0000°N, 0.0000°E)
Time: 21:52:16
(UTC+00:00)
Language:

STARLINK-34563 - Orbit

View from above orbital plane
View from above orbital plane
View from above satellite
View from above satellite

Ground track
Ground track

The orbit is defined by the following mean orbital elements,

1 64708U          26145.38386819 +.00000000 +00000-0 -35627-5 0 00001
2 64708  69.9999 121.2880 0003441 269.1526  90.9239 14.98321341    01
Epoch (UTC): 25 May 2026 09:12:46
Eccentricity: 0.0003441
inclination: 69.9999°
perigee height: 570 km
apogee height: 574 km
right ascension of ascending node: 121.2880°
argument of perigee: 269.1526°
revolutions per day: 14.98321341
mean anomaly at epoch: 90.9239°

The dashed part of the orbit path shows where the satellite is in the earth's shadow,  

DLR